This is the latest recevied weather packets stored in our database for station/object IK2ILW-6. If no packets are shown the sender has not sent any weather packets the latest 10 day(s).
| Time | Temp. | Humidity | Pressure | Rain* | Wind** | Luminosity | Snow |
|---|---|---|---|---|---|---|---|
| 1778062584 | 2.78° C | 97% | 1009.7 hPa | 10.92 mm | - | 63 W/m² | - |
| 1778062289 | 2.78° C | 97% | 1010.1 hPa | 13.97 mm | - | 70 W/m² | - |
| 1778061398 | 2.78° C | 97% | 1009.2 hPa | 23.11 mm | - | 70 W/m² | - |
| 1778060198 | 2.22° C | 97% | 1009.4 hPa | 24.89 mm | - | 58 W/m² | - |
| 1778059902 | 2.22° C | 97% | 1009.1 hPa | 23.11 mm | - | 42 W/m² | - |
| 1778059587 | 2.22° C | 97% | 1008.8 hPa | 22.1 mm | - | 70 W/m² | - |
| 1778058685 | 2.22° C | 96% | 1009 hPa | 14.99 mm | - | 49 W/m² | - |
| 1778058092 | 1.67° C | 96% | 1008.8 hPa | 9.91 mm | - | 74 W/m² | - |
| 1778057796 | 1.67° C | 96% | 1009 hPa | 5.08 mm | - | 74 W/m² | - |
| 1778056594 | 2.78° C | 96% | 1008.8 hPa | 0 mm | - | 163 W/m² | - |
| 1778056283 | 2.78° C | 95% | 1008.8 hPa | 0 mm | - | 125 W/m² | - |
| 1778055986 | 3.33° C | 96% | 1008.8 hPa | 0 mm | - | 149 W/m² | - |
| 1778055691 | 3.33° C | 96% | 1008.6 hPa | 0 mm | - | 311 W/m² | - |
| 1778055396 | 3.33° C | 96% | 1008.6 hPa | 0 mm | - | 357 W/m² | - |
| 1778055101 | 3.33° C | 96% | 1008.9 hPa | 0 mm | - | 279 W/m² | - |
| 1778054786 | 3.33° C | 96% | 1008.5 hPa | 0 mm | - | 471 W/m² | - |
| 1778054491 | 3.33° C | 96% | 1008.5 hPa | 0 mm | - | 223 W/m² | - |
| 1778054195 | 2.78° C | 96% | 1008.7 hPa | 1.02 mm | - | 292 W/m² | - |
| 1778052992 | 3.33° C | 97% | 1009 hPa | 1.02 mm | - | 258 W/m² | - |
| 1778052697 | 3.33° C | 97% | 1009 hPa | 1.02 mm | - | 299 W/m² | - |
| 1778052399 | 3.33° C | 97% | 1009 hPa | 1.02 mm | - | 299 W/m² | - |
| 1778052085 | 2.78° C | 96% | 1008.9 hPa | 1.02 mm | - | 617 W/m² | - |
| 1778051791 | 2.78° C | 96% | 1009 hPa | 1.02 mm | - | 193 W/m² | - |
| 1778051495 | 2.78° C | 96% | 1009 hPa | 1.02 mm | - | 185 W/m² | - |
| 1778051200 | 2.78° C | 97% | 1008.8 hPa | 1.02 mm | - | 137 W/m² | - |
* Rain latest hour (hover to see other rain measurements)
** Current wind speed in m/s (hover to see current wind gust speed)